User: anonymous   Login
Location: Lac de la Montange Noire
(46.1952°N, 74.2701°W)
Time: 00:18:53
(UTC-04:00)
Language:

Iridium 42 - Orbit

View from above orbital plane
View from above orbital plane
View from above satellite
View from above satellite

Ground track
Ground track

The orbit data is extracted from the following two-line orbital elements,

1 25077U 97077A   16243.24602089  .00000057  00000-0  13124-4 0  9995
2 25077  86.4005 143.5906 0002239  88.6605 271.4847 14.34497300980480
Epoch (UTC): 30 August 2016 05:54:16
Eccentricity: 0.0002239
inclination: 86.4005°
perigee height: 775 km
apogee height: 778 km
right ascension of ascending node: 143.5906°
argument of perigee: 88.6605°
revolutions per day: 14.34497300
mean anomaly at epoch: 271.4847°
orbit number at epoch: 98048

The dashed part of the orbit path shows where the satellite is in the earth's shadow,  

DLR